Time,TemperatureF,DewpointF,PressureIn,WindDirection,WindDirectionDegrees,WindSpeedMPH,WindSpeedGustMPH,Humidity,HourlyPrecipIn,Conditions,Clouds,dailyrainin,SoftwareType,DateUTC
2013-02-03 00:02:00,79.0,78.0,29.20,SW,222,5.0,7.0,98,0.00,,,0.00,,2013-02-02 22:02:00,
2013-02-03 00:11:00,79.0,78.0,29.20,SW,222,5.0,7.0,98,0.00,,,0.00,,2013-02-02 22:11:00,
2013-02-03 00:21:00,78.0,77.0,29.20,WSW,252,5.0,7.0,98,0.00,,,0.00,,2013-02-02 22:21:00,
2013-02-03 00:32:00,78.0,77.0,29.20,WSW,252,5.0,7.0,98,0.00,,,0.00,,2013-02-02 22:32:00,
2013-02-03 00:41:00,78.0,77.0,29.20,WSW,252,5.0,7.0,98,0.00,,,0.00,,2013-02-02 22:41:00,
2013-02-03 00:51:00,78.0,77.0,29.20,WSW,252,5.0,7.0,98,0.00,,,0.00,,2013-02-02 22:51:00,
2013-02-03 01:01:00,77.0,76.0,29.19,WSW,249,5.0,7.0,98,0.00,,,0.00,,2013-02-02 23:01:00,
2013-02-03 01:11:00,77.0,76.0,29.19,WSW,249,5.0,7.0,98,0.00,,,0.00,,2013-02-02 23:11:00,
2013-02-03 01:21:00,77.0,76.0,29.20,West,262,5.0,9.0,98,0.00,,,0.00,,2013-02-02 23:21:00,
2013-02-03 01:32:00,77.0,76.0,29.20,West,262,5.0,9.0,98,0.00,,,0.00,,2013-02-02 23:32:00,
2013-02-03 01:41:00,77.0,76.0,29.20,West,262,5.0,9.0,98,0.00,,,0.00,,2013-02-02 23:41:00,
2013-02-03 01:52:00,77.0,76.0,29.20,West,262,5.0,9.0,98,0.00,,,0.00,,2013-02-02 23:52:00,
2013-02-03 02:21:00,76.0,75.0,29.18,SW,222,5.0,6.0,98,0.00,,,0.00,,2013-02-03 00:21:00,
2013-02-03 02:31:00,76.0,75.0,29.18,WSW,255,2.0,7.0,98,0.00,,,0.00,,2013-02-03 00:31:00,
2013-02-03 02:41:00,76.0,75.0,29.18,WSW,255,2.0,7.0,98,0.00,,,0.00,,2013-02-03 00:41:00,
2013-02-03 02:51:00,76.0,75.0,29.18,WSW,252,2.0,6.0,98,0.00,,,0.00,,2013-02-03 00:51:00,
2013-02-03 03:01:00,76.0,75.0,29.18,WSW,252,2.0,6.0,98,0.00,,,0.00,,2013-02-03 01:01:00,
2013-02-03 03:11:00,75.0,74.0,29.17,NW,308,5.0,6.0,98,0.00,,,0.00,,2013-02-03 01:11:00,
2013-02-03 03:21:00,75.0,74.0,29.17,NW,308,5.0,6.0,98,0.00,,,0.00,,2013-02-03 01:21:00,
2013-02-03 03:32:00,75.0,74.0,29.17,NW,308,5.0,6.0,98,0.00,,,0.00,,2013-02-03 01:32:00,
2013-02-03 03:41:00,75.0,74.0,29.17,NW,308,5.0,6.0,98,0.00,,,0.00,,2013-02-03 01:41:00,
2013-02-03 03:51:00,75.0,74.0,29.17,WNW,290,3.0,7.0,98,0.00,,,0.00,,2013-02-03 01:51:00,
2013-02-03 04:01:00,76.0,75.0,29.17,NW,315,4.0,7.0,98,0.00,,,0.00,,2013-02-03 02:01:00,
2013-02-03 04:11:00,76.0,75.0,29.17,NW,315,4.0,7.0,98,0.00,,,0.00,,2013-02-03 02:11:00,
2013-02-03 04:21:00,76.0,75.0,29.17,NW,315,4.0,7.0,98,0.00,,,0.00,,2013-02-03 02:21:00,
2013-02-03 04:31:00,75.0,74.0,29.17,WNW,284,5.0,6.0,98,0.00,,,0.00,,2013-02-03 02:31:00,
2013-02-03 04:41:00,75.0,74.0,29.17,WNW,284,5.0,6.0,98,0.00,,,0.00,,2013-02-03 02:41:00,
2013-02-03 04:52:00,75.0,74.0,29.16,NW,315,3.0,6.0,98,0.00,,,0.00,,2013-02-03 02:52:00,
2013-02-03 05:01:00,75.0,74.0,29.16,NW,315,3.0,6.0,98,0.00,,,0.00,,2013-02-03 03:01:00,
2013-02-03 05:11:00,74.0,73.0,29.16,WNW,295,2.0,5.0,98,0.00,,,0.00,,2013-02-03 03:11:00,
2013-02-03 05:21:00,74.0,73.0,29.16,WNW,295,2.0,5.0,98,0.00,,,0.00,,2013-02-03 03:21:00,
2013-02-03 05:31:00,74.0,73.0,29.16,West,280,2.0,3.0,98,0.00,,,0.00,,2013-02-03 03:31:00,
2013-02-03 05:41:00,74.0,73.0,29.16,West,280,2.0,3.0,98,0.00,,,0.00,,2013-02-03 03:41:00,
2013-02-03 05:51:00,74.0,73.0,29.16,West,270,1.0,2.0,98,0.00,,,0.00,,2013-02-03 03:51:00,
2013-02-03 06:01:00,74.0,73.0,29.16,WSW,240,1.0,2.0,98,0.00,,,0.00,,2013-02-03 04:01:00,
2013-02-03 06:11:00,75.0,74.0,29.16,SSW,213,2.0,3.0,98,0.00,,,0.00,,2013-02-03 04:11:00,
2013-02-03 06:21:00,75.0,74.0,29.16,SSW,213,2.0,3.0,98,0.00,,,0.00,,2013-02-03 04:21:00,
2013-02-03 06:31:00,75.0,74.0,29.16,SSW,213,2.0,3.0,98,0.00,,,0.00,,2013-02-03 04:31:00,
2013-02-03 06:42:00,75.0,74.0,29.16,SSW,213,2.0,3.0,98,0.00,,,0.00,,2013-02-03 04:42:00,
2013-02-03 06:51:00,76.0,75.0,29.17,WSW,245,3.0,5.0,98,0.00,,,0.00,,2013-02-03 04:51:00,
2013-02-03 07:03:00,76.0,75.0,29.18,WNW,282,5.0,9.0,98,0.00,,,0.00,,2013-02-03 05:03:00,
2013-02-03 07:11:00,76.0,75.0,29.18,WNW,282,5.0,9.0,98,0.00,,,0.00,,2013-02-03 05:11:00,
2013-02-03 07:22:00,76.0,75.0,29.18,WNW,282,5.0,9.0,98,0.00,,,0.00,,2013-02-03 05:22:00,
2013-02-03 07:31:00,74.0,73.0,29.19,SSE,158,17.0,18.0,98,0.01,,,0.01,,2013-02-03 05:31:00,
2013-02-03 07:41:00,74.0,73.0,29.19,SSE,158,17.0,18.0,98,0.01,,,0.01,,2013-02-03 05:41:00,
2013-02-03 07:52:00,74.0,73.0,29.19,SSE,158,17.0,18.0,98,0.01,,,0.01,,2013-02-03 05:52:00,
2013-02-03 08:02:00,75.0,74.0,29.20,SSW,207,9.0,18.0,98,0.05,,,0.05,,2013-02-03 06:02:00,
2013-02-03 08:11:00,75.0,74.0,29.20,SSW,207,9.0,18.0,98,0.05,,,0.05,,2013-02-03 06:11:00,
2013-02-03 08:21:00,74.0,73.0,29.21,South,191,13.0,20.0,98,0.04,,,0.05,,2013-02-03 06:21:00,
2013-02-03 08:31:00,74.0,73.0,29.21,South,191,13.0,20.0,98,0.04,,,0.05,,2013-02-03 06:31:00,
2013-02-03 08:41:00,74.0,73.0,29.21,South,191,13.0,20.0,98,0.04,,,0.05,,2013-02-03 06:41:00,
2013-02-03 08:52:00,74.0,73.0,29.22,South,171,13.0,22.0,98,0.06,,,0.10,,2013-02-03 06:52:00,
2013-02-03 09:01:00,73.0,72.0,29.23,South,177,12.0,23.0,98,0.10,,,0.15,,2013-02-03 07:01:00,
2013-02-03 09:11:00,73.0,72.0,29.23,South,177,12.0,23.0,98,0.10,,,0.15,,2013-02-03 07:11:00,
2013-02-03 09:21:00,74.0,73.0,29.23,SSE,158,13.0,20.0,98,0.13,,,0.18,,2013-02-03 07:21:00,
2013-02-03 09:31:00,74.0,73.0,29.23,SSE,158,13.0,20.0,98,0.13,,,0.18,,2013-02-03 07:31:00,
2013-02-03 09:41:00,74.0,73.0,29.23,SSE,158,13.0,20.0,98,0.13,,,0.18,,2013-02-03 07:41:00,
2013-02-03 09:52:00,73.0,72.0,29.24,SSW,193,15.0,17.0,98,0.12,,,0.22,,2013-02-03 07:52:00,
2013-02-03 10:01:00,73.0,72.0,29.25,SSE,158,12.0,16.0,98,0.07,,,0.22,,2013-02-03 08:01:00,
2013-02-03 10:11:00,73.0,72.0,29.25,SSE,158,12.0,16.0,98,0.07,,,0.22,,2013-02-03 08:11:00,
2013-02-03 10:22:00,73.0,72.0,29.25,SSE,158,12.0,16.0,98,0.07,,,0.22,,2013-02-03 08:22:00,
2013-02-03 10:32:00,74.0,73.0,29.25,South,187,14.0,18.0,98,0.05,,,0.26,,2013-02-03 08:32:00,
2013-02-03 10:41:00,74.0,73.0,29.25,South,187,14.0,18.0,98,0.05,,,0.26,,2013-02-03 08:41:00,
2013-02-03 10:52:00,74.0,73.0,29.26,South,175,9.0,14.0,98,0.07,,,0.29,,2013-02-03 08:52:00,
2013-02-03 11:02:00,75.0,74.0,29.27,SSE,158,7.0,14.0,98,0.07,,,0.29,,2013-02-03 09:02:00,
2013-02-03 11:11:00,75.0,74.0,29.27,SSE,158,7.0,14.0,98,0.07,,,0.29,,2013-02-03 09:11:00,
2013-02-03 11:21:00,75.0,74.0,29.27,SSE,158,7.0,14.0,98,0.07,,,0.29,,2013-02-03 09:21:00,
2013-02-03 11:31:00,75.0,74.0,29.27,SSE,158,7.0,14.0,98,0.07,,,0.29,,2013-02-03 09:31:00,
2013-02-03 11:41:00,75.0,74.0,29.27,SSE,158,7.0,14.0,98,0.07,,,0.29,,2013-02-03 09:41:00,
2013-02-03 11:52:00,75.0,74.0,29.28,South,175,7.0,14.0,98,0.01,,,0.30,,2013-02-03 09:52:00,
2013-02-03 12:01:00,75.0,74.0,29.28,SSE,158,7.0,13.0,98,0.01,,,0.30,,2013-02-03 10:01:00,
2013-02-03 12:11:00,75.0,74.0,29.28,SSE,158,7.0,13.0,98,0.01,,,0.30,,2013-02-03 10:11:00,
2013-02-03 12:21:00,77.0,76.0,29.29,SSE,153,10.0,13.0,98,0.00,,,0.30,,2013-02-03 10:21:00,
2013-02-03 12:31:00,75.0,74.0,29.28,South,178,9.0,15.0,98,0.00,,,0.30,,2013-02-03 10:31:00,
2013-02-03 12:41:00,75.0,74.0,29.28,South,178,9.0,15.0,98,0.00,,,0.30,,2013-02-03 10:41:00,
2013-02-03 12:52:00,76.0,75.0,29.29,SSE,158,7.0,12.0,98,0.00,,,0.30,,2013-02-03 10:52:00,
2013-02-03 13:02:00,76.0,75.0,29.28,SSE,159,8.0,10.0,98,0.00,,,0.30,,2013-02-03 11:02:00,
2013-02-03 13:11:00,76.0,75.0,29.28,SSE,159,8.0,10.0,98,0.00,,,0.30,,2013-02-03 11:11:00,
2013-02-03 13:52:00,78.0,47.0,29.29,SSE,161,7.0,9.0,33,0.00,,,0.30,,2013-02-03 11:52:00,
2013-02-03 14:02:00,78.0,47.0,29.29,SSE,161,7.0,9.0,33,0.00,,,0.30,,2013-02-03 12:02:00,
2013-02-03 14:11:00,78.0,47.0,29.29,SSE,161,7.0,9.0,33,0.00,,,0.30,,2013-02-03 12:11:00,
2013-02-03 14:21:00,78.0,47.0,29.29,SSE,161,7.0,9.0,33,0.00,,,0.30,,2013-02-03 12:21:00,
2013-02-03 14:53:00,79.0,79.0,29.30,South,180,9.0,10.0,100,0.00,,,0.30,,2013-02-03 12:53:00,
2013-02-03 15:03:00,79.0,79.0,29.31,South,189,6.0,10.0,100,0.00,,,0.30,,2013-02-03 13:03:00,
2013-02-03 15:11:00,79.0,79.0,29.31,South,189,6.0,10.0,100,0.00,,,0.30,,2013-02-03 13:11:00,
2013-02-03 15:21:00,79.0,79.0,29.31,South,189,6.0,10.0,100,0.00,,,0.30,,2013-02-03 13:21:00,
2013-02-03 15:32:00,78.0,78.0,29.31,South,180,8.0,10.0,100,0.00,,,0.30,,2013-02-03 13:32:00,
2013-02-03 15:41:00,78.0,78.0,29.31,South,180,8.0,10.0,100,0.00,,,0.30,,2013-02-03 13:41:00,
2013-02-03 15:52:00,77.0,77.0,29.31,SSE,168,9.0,12.0,100,0.00,,,0.30,,2013-02-03 13:52:00,
2013-02-03 16:02:00,77.0,77.0,29.31,SSE,168,9.0,12.0,100,0.00,,,0.30,,2013-02-03 14:02:00,
2013-02-03 16:11:00,77.0,77.0,29.31,SSE,168,9.0,12.0,100,0.00,,,0.30,,2013-02-03 14:11:00,
2013-02-03 16:21:00,78.0,2.0,29.30,SSE,167,7.0,10.0,5,0.00,,,0.30,,2013-02-03 14:21:00,
2013-02-03 17:52:00,75.0,52.0,29.30,NW,308,5.0,6.0,44,0.00,,,0.30,,2013-02-03 15:52:00,
2013-02-03 18:02:00,75.0,52.0,29.30,NW,308,5.0,6.0,44,0.00,,,0.30,,2013-02-03 16:02:00,
2013-02-03 18:11:00,75.0,52.0,29.30,NW,308,5.0,6.0,44,0.00,,,0.30,,2013-02-03 16:11:00,
2013-02-03 18:21:00,76.0,29.0,29.31,SW,220,5.0,7.0,18,0.00,,,0.30,,2013-02-03 16:21:00,
2013-02-03 18:32:00,76.0,29.0,29.31,SW,220,5.0,7.0,18,0.00,,,0.30,,2013-02-03 16:32:00,
2013-02-03 18:41:00,76.0,29.0,29.31,SW,220,5.0,7.0,18,0.00,,,0.30,,2013-02-03 16:41:00,
2013-02-03 18:52:00,76.0,29.0,29.31,SW,220,5.0,7.0,18,0.00,,,0.30,,2013-02-03 16:52:00,
2013-02-03 19:02:00,74.0,74.0,29.32,NNW,341,3.0,6.0,100,0.00,,,0.30,,2013-02-03 17:02:00,
2013-02-03 19:11:00,74.0,74.0,29.32,NNW,341,3.0,6.0,100,0.00,,,0.30,,2013-02-03 17:11:00,
2013-02-03 20:02:00,73.0,73.0,29.34,NW,311,2.0,3.0,100,0.00,,,0.30,,2013-02-03 18:02:00,
2013-02-03 20:11:00,73.0,73.0,29.34,NW,311,2.0,3.0,100,0.00,,,0.30,,2013-02-03 18:11:00,
2013-02-03 20:23:00,72.0,72.0,29.34,NW,307,3.0,5.0,100,0.00,,,0.30,,2013-02-03 18:23:00,
2013-02-03 20:32:00,72.0,72.0,29.34,NW,307,3.0,5.0,100,0.00,,,0.30,,2013-02-03 18:32:00,
2013-02-03 20:41:00,72.0,72.0,29.34,NW,307,3.0,5.0,100,0.00,,,0.30,,2013-02-03 18:41:00,
2013-02-03 20:51:00,72.0,72.0,29.34,West,270,2.0,3.0,100,0.00,,,0.30,,2013-02-03 18:51:00,
2013-02-03 21:02:00,71.0,71.0,29.35,West,270,3.0,3.0,100,0.00,,,0.30,,2013-02-03 19:02:00,
2013-02-03 21:11:00,71.0,71.0,29.35,West,270,3.0,3.0,100,0.00,,,0.30,,2013-02-03 19:11:00,
2013-02-03 21:21:00,71.0,71.0,29.35,West,270,3.0,3.0,100,0.00,,,0.30,,2013-02-03 19:21:00,
2013-02-03 21:31:00,72.0,72.0,29.36,SSW,198,2.0,3.0,100,0.00,,,0.30,,2013-02-03 19:31:00,
2013-02-03 21:41:00,72.0,72.0,29.36,SSW,198,2.0,3.0,100,0.00,,,0.30,,2013-02-03 19:41:00,
2013-02-03 21:52:00,71.0,70.0,29.36,SW,231,5.0,6.0,98,0.00,,,0.30,,2013-02-03 19:52:00,
2013-02-03 22:01:00,71.0,70.0,29.36,SW,231,5.0,6.0,98,0.00,,,0.30,,2013-02-03 20:01:00,
2013-02-03 22:11:00,71.0,70.0,29.36,SW,231,5.0,6.0,98,0.00,,,0.30,,2013-02-03 20:11:00,
2013-02-03 22:21:00,70.0,69.0,29.37,South,182,4.0,6.0,98,0.00,,,0.30,,2013-02-03 20:21:00,
2013-02-03 22:32:00,69.0,68.0,29.38,SE,128,2.0,6.0,98,0.02,,,0.32,,2013-02-03 20:32:00,
2013-02-03 22:42:00,69.0,68.0,29.38,SE,128,2.0,6.0,98,0.02,,,0.32,,2013-02-03 20:42:00,
2013-02-03 22:52:00,69.0,68.0,29.38,WSW,248,2.0,2.0,98,0.02,,,0.32,,2013-02-03 20:52:00,
2013-02-03 23:02:00,68.0,67.0,29.38,WSW,247,0.0,2.0,98,0.02,,,0.32,,2013-02-03 21:02:00,
2013-02-03 23:11:00,68.0,67.0,29.38,WSW,247,0.0,2.0,98,0.02,,,0.32,,2013-02-03 21:11:00,
2013-02-03 23:21:00,68.0,67.0,29.38,West,260,2.0,3.0,98,0.02,,,0.32,,2013-02-03 21:21:00,
2013-02-03 23:32:00,68.0,67.0,29.38,West,259,3.0,6.0,98,0.00,,,0.32,,2013-02-03 21:32:00,
2013-02-03 23:42:00,68.0,67.0,29.38,West,259,3.0,6.0,98,0.00,,,0.32,,2013-02-03 21:42:00,
2013-02-03 23:51:00,68.0,67.0,29.38,SW,229,3.0,6.0,98,0.00,,,0.32,,2013-02-03 21:51:00,